Weather Roundup
Issued by NWS

Home | Current Version | Previous Version | Text Only | Print | Product List | Glossary On
Versions: 1 2 3 4 5 6 7 8 9 10 11 12 13 14 15 16 17 18 19 20 21 22 23 24 25 26 27 28 29 30 31 32 33 34 35 36 37 38 39 40 41 42 43 44 45 46 47 48 49 50
000
NZUS93 KARX 220810
HRRWXR

CURRENT HOURLY OBSERVATIONS ACROSS
MUCH OF THE UPPER MISSISSIPPI VALLEY
NATIONAL WEATHER SERVICE LA CROSSE WI
300 AM CDT WED OCT 22 2014


...SOUTHEAST MINNESOTA...


CITY           SKY/WX    TMP DP  RH WIND       PRES   REMARKS
ROCHESTER      CLEAR     38  35  89 SE9       30.23R WCI  31
ROCHESTER/MAYO FAIR      40  35  83 SE9       30.23R WCI  33
WINONA         CLEAR     37  36  93 SE5       30.27R WCI  34
AUSTIN         CLEAR     41  36  81 S7        30.21R
ALBERT LEA     CLEAR     43  37  81 SE14      30.19S
DODGE CENTER   PTCLDY    39  37  93 SE13      30.21R WCI  32
PRESTON        CLEAR     38  35  89 SE9       30.24R WCI  31
OWATONNA       CLEAR     43  36  75 SE12      30.19R
FARIBAULT      CLEAR     43  37  81 SE13      30.19S
$$

...ELSEWHERE IN MINNESOTA...


CITY           SKY/WX    TMP DP  RH WIND       PRES   REMARKS
MINNEAPOLIS    CLEAR     42  36  79 SE12      30.19S
INTNL FALLS    CLEAR     41  35  79 SE9G18    30.07S
DULUTH         CLEAR     41  34  76 S9        30.19S
RED WING       CLEAR     45  37  76 SE10      30.22S
REDWOOD FALLS  CLEAR     47  39  74 SE15      30.09R
MANKATO        CLEAR     45  34  65 SE17      30.15S
WORTHINGTON    CLEAR     46  39  76 S16G22    30.09R
FAIRMONT       CLEAR     45  36  70 SE15      30.14R
$$

...SOUTHWEST WISCONSIN...


CITY           SKY/WX    TMP DP  RH WIND       PRES   REMARKS
LA CROSSE      CLEAR     39  35  86 SE5       30.28R
PRAIRIE DU CHI CLEAR     37  35  92 CALM      30.29R
BOSCOBEL       FOG       34  32  92 CALM      30.30S VSB 1/4
LONE ROCK      FOG       33  29  85 CALM      30.31R VSB 1/4
PLATTEVILLE    CLEAR     35  33  93 E6        30.30R WCI  30
FORT MC COY    CLEAR     26  26  97 CALM      30.30S
CAMP DOUGLAS   PTCLDY    25  25 100 E5        30.30S WCI  19
VIROQUA        FAIR      35  35 100 SE3       30.27R
WIS DELLS      CLEAR     29  28  96 CALM      30.30R
$$

...ELSEWHERE IN WISCONSIN...


CITY           SKY/WX    TMP DP  RH WIND       PRES   REMARKS
MILWAUKEE      PTCLDY    37  33  85 NW6       30.30R WCI  32
MADISON        CLEAR     29  28  96 CALM      30.30S FOG
GREEN BAY      PTCLDY    32  30  92 CALM      30.33R
EAU CLAIRE     CLEAR     39  33  79 S7        30.25S WCI  34
BLACK RVR FLS  FAIR      24  24 100 CALM      30.29R
MEDFORD        CLEAR     33  32  96 SE3       30.28S
WAUSAU         CLEAR     31  29  92 E6        30.30R WCI  25
WIS RAPIDS     PTCLDY    29  28  96 CALM      30.32R
MARSHFIELD     PTCLDY    32  30  92 E6        30.29R WCI  26
RICE LAKE      CLEAR     37  34  88 SE5       30.25S WCI  33
$$

...NORTHEAST IOWA...


CITY           SKY/WX    TMP DP  RH WIND       PRES   REMARKS
DECORAH        CLEAR     37  36  93 SE8G16    30.24S WCI  31
MASON CITY     NOT AVBL
CHARLES CITY   CLEAR     39  37  93 SE9       30.24R WCI  33
OELWEIN        CLEAR     39  37  93 SE12      30.26R WCI  32
$$

...ELSEWHERE IN IOWA...


CITY           SKY/WX    TMP DP  RH WIND       PRES   REMARKS
DES MOINES     CLEAR     48  38  68 SE10      30.20R
IOWA CITY      CLEAR     38  36  92 SE5       30.28R WCI  34
FORT DODGE     CLEAR     45  36  70 SE8       30.17S
$$

...NORTHERN ILLINOIS...


CITY           SKY/WX    TMP DP  RH WIND       PRES   REMARKS
CHICAGO-OHARE  CLOUDY    47  39  74 CALM      30.27R
CHICAGO-MIDWAY MOCLDY    49  39  68 SW7       30.28R
MOLINE         CLEAR     34  33  96 E3        30.28R
ROCKFORD       PTCLDY    35  32  88 N5        30.31R WCI  31
PEORIA         CLEAR     41  36  82 E6        30.28R
$$

NOTE: "FAIR" INDICATES FEW OR NO CLOUDS BELOW 12,000 FEET WITH NO
SIGNIFICANT WEATHER AND/OR OBSTRUCTIONS TO VISIBILITY. WIND
SPEEDS ARE IN MILES-PER-HOUR.



USA.gov is the U.S. government's official web portal to all federal, state and local government web resources and services.